Regional Weather Roundup
Issued by NWS

Home | Current Version | Previous Version | Text Only | Print | Product List | Glossary Off
Versions: 1 2 3 4 5 6 7 8 9 10 11 12 13 14 15 16 17 18 19 20 21 22 23 24 25 26 27 28 29 30 31 32 33 34 35 36 37 38 39 40 41 42 43 44 45 46 47 48 49 50

000
ASUS43 KDMX 220506
RWRIA

WEATHER ROUNDUP FOR IOWA
NATIONAL WEATHER SERVICE DES MOINES IA
1100 PM CST TUE NOV 21 2017

NOTE: "FAIR" INDICATES FEW OR NO CLOUDS BELOW 12,000 FEET WITH NO
SIGNIFICANT WEATHER AND/OR OBSTRUCTIONS TO VISIBILITY.

* - THESE STATIONS ARE NOT NWS STATIONS...THUS NOT UNDER NWS
QUALITY CONTROL.  THEY ALSO DO NOT REPORT WEATHER SUCH
AS PRECIPITATION OR FOG.

IAZ001>003-012>014-020>022-031>034-043>046-220600-
   NORTHWEST IOWA

CITY           SKY/WX    TMP DP  RH WIND       PRES   REMARKS
CARROLL *      CLOUDY    19  10  68 W6        30.35S WCI  11
CHEROKEE *     PTCLDY    17  10  73 S3        30.37S
DENISON *      CLOUDY    19  10  68 VRB6      30.40R WCI  11
LE MARS *      CLOUDY    18   9  68 CALM      30.38S
ORANGE CITY *  CLOUDY    12   9  85 W6        30.35S WCI   3
SHELDON *      CLOUDY    12   7  79 W6        30.34R WCI   3
SIOUX CITY     CLOUDY    17   9  70 NW8       30.40S WCI   7
SPENCER        CLOUDY    13   7  77 NW6       30.34F WCI   4
STORM LAKE *   CLOUDY    14   9  79 W9        30.35R WCI   2
$$

IAZ055>058-069>071-079>083-090>094-220600-
   SOUTHWEST IOWA

CITY           SKY/WX    TMP DP  RH WIND       PRES   REMARKS
ATLANTIC *     CLOUDY    19  12  73 CALM      30.37F
AUDUBON *      CLOUDY    18  12  79 CALM      30.35F
CLARINDA *       N/A     21  14  73 N5        30.41F WCI  15
COUNCIL BLFS * CLOUDY    21  12  68 NW9       30.38R WCI  11
CRESTON *      CLOUDY    19  14  79 NW6       30.36S WCI  11
HARLAN  *      CLOUDY    18  10  73 NW6       30.41S WCI   9
LAMONI         CLOUDY    23  13  65 NW8       30.34S WCI  14
RED OAK *      CLOUDY    21  14  73 NW5       30.39S WCI  15
SHENANDOAH *   CLOUDY    21  14  73 NW7       30.41F WCI  13
$$

IAZ047>049-059>061-072>074-084-220600-
   CENTRAL IOWA

CITY           SKY/WX    TMP DP  RH WIND       PRES   REMARKS
AMES           CLOUDY    23  12  62 NW13      30.34F WCI  11
ANKENY *       CLOUDY    23  12  63 NW6G13    30.36R WCI  16
BOONE *        CLOUDY    23  10  58 NW12      30.33R WCI  12
CHARITON *     PTCLDY    23  12  63 NW10      30.34S WCI  12
DES MOINES     CLOUDY    23  12  62 NW8       30.36S WCI  14
GRINNELL*      CLOUDY    20  15  78 NW9       30.32F WCI  10
KNOXVILLE *    CLOUDY    23  10  58 N9        30.32F WCI  13
MARSHALLTOWN   CLOUDY    20  13  74 NW7       30.31F WCI  11
NEWTON *       CLOUDY    21  12  68 N9        30.33S WCI  11
PELLA *        PTCLDY    22  14  71 N7        30.34F WCI  13
PERRY *          N/A     19  11  71 NW6       30.35F WCI  10
$$

IAZ004>006-015-016-023>025-035-036-220600-
   NORTH CENTRAL IOWA

CITY           SKY/WX    TMP DP  RH WIND       PRES   REMARKS
ALGONA *       CLOUDY    19  12  73 NW8       30.33F WCI   9
CLARION *      CLOUDY    19  12  73 NW9       30.33S WCI   9
ESTHERVILLE    CLOUDY    16  10  77 NW8       30.34R WCI   5
FORT DODGE *   CLOUDY    19  12  74 CALM      30.34S
MASON CITY     CLOUDY    19  10  68 NW10      30.33R WCI   7
FOREST CITY *    N/A     21  12  68 NW10      30.32R WCI  10
WEBSTER CITY * CLOUDY    19  10  68 NW9       30.32S WCI   9
IOWA FALLS *     N/A     22  14  70 NW15      30.32F WCI   9
$$

IAZ007>011-017>019-026>030-037>042-050>054-066-220600-
   NORTHEAST IOWA

CITY           SKY/WX    TMP DP  RH WIND       PRES   REMARKS
CEDAR RAPIDS   CLEAR     18  13  80 NW5       30.29S WCI  11
CHARLES CITY * CLOUDY    19  12  73 NW7       30.30S WCI  10
CLINTON *      CLEAR     18  15  88 W7        30.28  WCI   9
DECORAH *      CLEAR     19  12  73 W6        30.27R WCI  11
DUBUQUE        CLEAR     21  13  71 NW8       30.26R WCI  11
MONTICELLO *   CLEAR     21  14  73 NW8       30.28S WCI  12
OELWEIN *      CLEAR     19  16  86 NW12      30.30S WCI   7
WATERLOO       CLOUDY    20  12  71 NW6       30.32S WCI  12
$$

IAZ064-065-067-068-078-220600-
   EAST CENTRAL IOWA

CITY           SKY/WX    TMP DP  RH WIND       PRES   REMARKS
DAVENPORT      CLEAR     21  16  81 NW7       30.30R WCI  12
IOWA CITY      CLEAR     24  15  68 NW8       30.33R WCI  15
MT. PLEASANT * CLEAR     24  14  67 NW7       30.32S WCI  16
MUSCATINE *    CLEAR     25  16  68 NW9       30.33R WCI  15
QUAD CITIES    CLEAR     25  16  68 NW8       30.28R WCI  16
$$

IAZ062-063-075>077-085>089-095>099-220600-
   SOUTHEAST IOWA

CITY           SKY/WX    TMP DP  RH WIND       PRES   REMARKS
BURLINGTON     CLEAR     25  17  72 NW9       30.30R WCI  15
FAIRFIELD *    CLEAR     23  14  68 NW10      30.31F WCI  12
FORT MADISON * CLEAR     25  18  74 NW7       30.31S WCI  17
KEOKUK *       CLEAR     25  18  74 NW7       30.31S WCI  17
OSKALOOSA *      N/A     22  15  76 N9        30.32F WCI  11
OTTUMWA        CLEAR     22  13  68 NW10      30.33S WCI  11
WASHINGTON *   CLEAR     23  16  74 NW12      30.32F WCI  12
$$

ABBREVIATIONS USED IN REMARKS
   TC - TEMPERATURES IN CELSIUS
  WCI - WIND CHILL INDEX
   HX - HEAT INDEX
  VSB - VISIBILITY
$$





USA.gov is the U.S. government's official web portal to all federal, state and local government web resources and services.